Date,TemperatureHighF,TemperatureAvgF,TemperatureLowF,DewpointHighF,DewpointAvgF,DewpointLowF,HumidityHigh,HumidityAvg,HumidityLow,PressureMaxIn,PressureMinIn,WindSpeedMaxMPH,WindSpeedAvgMPH,GustSpeedMaxMPH,PrecipitationSumIn
2013-1-1,42.6,40.4,35.6,39.9,37.4,32.4,90,89,88,30.13,29.98,2,0,4,0.60
2013-1-2,43.3,40.4,36.6,40.5,36.8,33.4,90,87,81,30.11,29.93,6,1,14,0.02
2013-1-3,42.6,34.5,24.2,35.0,30.2,21.2,89,85,67,30.33,30.08,5,1,10,0.00
2013-1-4,43.7,28.1,18.5,28.5,19.3,15.7,89,73,33,30.42,30.30,7,1,15,0.00
2013-1-5,46.9,31.9,19.0,33.8,24.6,16.0,88,76,43,30.44,30.26,5,1,6,0.00
2013-1-6,49.5,39.5,33.3,38.4,33.1,28.3,89,78,59,30.26,30.07,8,2,20,0.02
2013-1-7,52.9,34.3,22.6,31.9,25.5,19.6,90,73,32,30.41,30.22,5,1,12,0.00
2013-1-8,54.0,35.2,22.4,42.9,30.0,19.4,89,82,59,30.47,30.35,6,1,10,0.00
2013-1-9,51.4,45.8,40.2,48.0,42.6,37.2,89,88,87,30.46,30.40,1,0,3,0.00
2013-1-10,51.8,44.6,42.0,49.0,41.8,39.3,91,90,89,30.47,30.42,1,0,3,0.00
2013-1-23,45.0,45.0,45.0,24.4,24.4,24.4,44,44,44,30.22,30.22,3,3,10,0.00
2013-3-28,52.2,44.0,24.1,26.6,20.0,14.2,88,43,24,30.28,30.19,10,4,23,0.00
2013-3-29,46.5,39.1,22.8,36.2,27.3,16.9,88,65,42,30.33,30.24,5,1,10,0.00
2013-3-30,61.6,53.9,38.2,43.9,41.0,35.3,89,63,45,30.17,29.98,5,2,12,0.00
2013-4-1,57.3,50.7,39.0,43.8,40.7,36.0,89,70,57,29.90,29.88,6,3,12,0.00
2013-4-2,57.6,50.5,43.0,38.6,22.4,16.1,49,34,21,30.08,30.01,6,3,17,0.00
2013-4-3,60.5,53.2,40.8,30.2,28.2,24.6,59,39,31,30.14,30.05,5,1,12,0.00
2013-4-4,48.8,40.2,36.5,36.5,33.2,26.3,89,78,42,30.13,29.91,5,0,13,0.00
2013-4-5,57.7,48.5,36.4,43.4,38.8,33.5,90,71,49,30.03,29.93,6,2,13,0.00
2013-4-6,66.9,61.2,39.2,37.4,34.4,31.7,85,38,28,30.16,30.05,9,3,18,0.00
2013-4-7,65.3,62.2,49.0,43.4,42.7,42.0,80,50,43,30.04,30.02,6,2,14,0.00
2013-4-8,68.7,59.2,45.4,49.4,47.1,41.8,87,66,49,30.06,29.99,3,1,10,0.00
2013-4-9,69.7,62.3,49.7,53.6,51.3,46.6,89,69,56,30.12,30.01,3,2,12,0.00
2013-4-10,72.2,61.2,48.1,57.2,53.0,44.7,89,76,58,30.03,30.01,5,1,12,0.00
2013-4-11,69.9,67.5,64.5,60.9,58.6,53.0,86,74,55,29.81,29.56,9,4,26,0.00
2013-4-12,66.1,61.9,51.5,55.5,44.8,38.2,81,55,40,29.75,29.62,9,4,18,0.00
2013-4-13,40.3,38.6,37.5,37.0,35.3,34.2,88,88,88,29.92,29.91,0,0,4,0.00
2013-4-14,53.8,52.9,51.4,47.6,47.0,45.8,86,80,75,29.94,29.92,2,0,7,0.00
2013-4-15,70.1,60.6,51.2,61.7,53.1,47.3,89,77,58,30.06,29.95,5,2,13,0.00
2013-4-16,65.6,62.9,58.5,56.7,55.9,54.3,86,78,73,30.16,30.12,2,1,10,0.00
2013-4-17,77.5,65.6,57.4,62.9,57.4,53.6,87,75,58,30.13,30.04,6,2,15,0.00
2013-4-18,72.0,68.3,65.3,59.2,57.7,55.4,76,69,60,30.00,29.82,10,3,17,0.00
2013-4-19,62.6,59.9,55.0,58.7,55.6,46.1,87,86,72,29.71,29.61,6,2,31,0.00
2013-4-20,59.0,49.0,38.1,33.3,30.0,26.6,81,51,30,30.22,30.09,8,3,31,0.00
2013-4-21,63.6,52.8,31.0,35.9,33.4,26.5,88,52,33,30.33,30.21,8,2,17,0.00
2013-4-22,64.2,58.6,51.9,44.5,39.7,38.3,60,50,40,30.27,30.08,6,3,15,0.00
2013-4-23,71.3,50.7,33.0,44.6,37.9,29.6,87,65,34,30.17,30.01,15,2,21,0.00
2013-4-24,67.6,61.5,57.1,57.4,53.9,50.2,87,77,59,30.00,29.94,5,2,14,0.00
2013-4-25,65.8,51.9,42.7,42.7,35.7,20.6,87,58,18,30.22,30.14,8,3,15,0.00
2013-4-26,66.0,57.9,38.4,41.3,36.3,34.3,85,47,31,30.36,30.25,6,2,17,0.00
2013-4-27,49.4,48.0,47.2,45.7,44.5,43.8,88,88,87,30.24,30.20,0,0,3,0.00
2013-4-28,52.5,52.3,51.9,49.4,49.1,48.7,89,89,88,29.97,29.92,5,2,12,0.00
2013-4-29,73.5,67.0,54.6,56.7,51.7,44.9,90,60,37,29.97,29.83,5,1,11,0.00
2013-4-30,66.4,60.9,51.8,55.3,53.9,48.9,90,78,66,30.01,29.99,2,1,7,0.00
2013-5-1,72.3,64.3,54.5,54.8,51.1,47.8,88,63,50,30.11,30.05,3,1,13,0.00
2013-5-2,67.4,61.7,56.3,54.7,52.4,50.8,84,72,59,30.12,30.07,8,2,14,0.00
2013-5-3,63.1,56.4,54.2,51.7,50.4,48.4,86,81,63,30.09,29.95,7,1,17,0.00
2013-5-4,50.7,49.7,49.2,44.1,43.7,43.5,81,80,78,29.92,29.91,1,1,21,0.00
2013-5-5,55.3,51.7,48.3,51.2,48.1,44.9,89,87,85,29.77,29.71,5,1,21,0.00
2013-5-6,58.2,48.5,42.1,46.8,43.6,39.1,90,84,58,29.79,29.68,7,1,20,0.00
2013-5-7,67.3,51.6,40.4,52.5,44.4,37.4,89,78,47,29.90,29.81,3,1,16,0.00
2013-5-8,66.7,57.4,49.5,54.6,50.6,41.9,89,79,64,29.94,29.91,3,1,6,0.00
2013-5-9,76.8,67.9,51.4,62.0,54.5,48.3,90,65,43,30.05,29.95,6,1,16,0.00
2013-5-10,70.9,64.2,60.8,58.9,57.2,56.3,85,79,66,29.99,29.90,3,1,16,0.00
2013-5-11,57.8,57.3,56.9,54.3,53.8,53.4,88,88,88,29.82,29.81,0,0,16,0.00
2013-5-12,61.1,52.5,38.4,45.0,39.4,34.0,84,63,46,30.03,29.92,8,4,22,0.00
2013-5-13,59.0,42.6,34.4,37.6,32.8,30.6,88,72,34,30.14,30.04,9,1,20,0.00
2013-5-14,74.7,61.6,43.5,51.7,44.3,38.5,84,55,39,30.21,30.05,6,2,12,0.00
2013-5-15,83.4,74.2,50.1,56.3,53.0,47.0,89,52,33,30.09,29.91,7,1,12,0.00
2013-5-16,77.2,72.6,69.2,59.4,57.5,56.3,71,60,51,29.96,29.91,3,1,10,0.00
2013-5-17,76.9,69.2,58.7,61.7,56.0,53.0,83,64,48,30.02,29.95,8,2,15,0.00
2013-5-18,66.2,65.4,63.6,60.9,60.3,59.3,86,84,82,29.99,29.95,5,1,10,0.00
2013-5-19,68.8,67.2,57.8,63.9,62.2,54.2,88,84,81,30.00,29.90,3,1,10,0.00
2013-5-20,80.7,69.0,58.5,69.6,62.0,55.6,90,79,58,30.04,29.92,8,1,17,0.00
2013-5-21,83.4,67.4,59.0,67.1,60.4,55.4,90,80,51,29.97,29.82,6,1,16,0.00
2013-5-22,79.8,67.4,59.9,69.6,61.8,56.3,90,83,65,29.90,29.78,6,1,20,0.00
2013-5-23,75.9,64.5,59.4,63.3,58.3,53.6,90,81,54,29.87,29.81,6,1,15,0.00
2013-5-24,68.2,59.8,45.5,51.4,42.7,37.9,81,56,34,30.16,29.91,10,4,24,0.00
2013-5-25,60.5,44.5,36.7,45.0,38.3,33.3,88,80,51,30.27,30.15,1,0,15,0.00
2013-5-26,53.9,50.6,48.6,45.9,44.5,39.3,86,80,70,30.22,30.16,0,0,5,0.00
2013-5-27,71.3,51.5,44.7,55.8,46.1,41.1,88,82,58,30.21,30.15,0,0,1,0.00
2013-5-28,79.4,72.4,59.0,62.0,59.4,55.8,89,65,49,30.12,30.04,8,3,18,0.00
2013-5-29,80.2,70.4,58.2,64.0,59.5,54.8,89,70,51,30.14,30.04,3,0,20,0.00
2013-5-30,75.1,62.3,54.9,64.0,56.5,51.4,89,82,63,30.18,30.07,3,0,15,0.00
2013-5-31,65.7,65.5,65.3,60.4,60.3,60.3,84,84,83,30.11,30.11,2,1,7,0.00
2013-6-1,77.3,74.8,70.3,64.6,63.2,61.9,81,67,61,29.99,29.92,7,3,18,0.00
2013-6-2,73.4,69.8,64.2,68.3,65.4,60.6,88,86,84,29.88,29.81,3,0,6,0.00
2013-6-3,77.7,72.3,61.7,66.1,63.5,57.4,88,74,60,29.86,29.77,8,2,13,0.00
2013-6-4,80.3,71.8,58.9,67.5,61.3,56.0,90,71,47,29.97,29.90,3,1,9,0.00
2013-6-5,80.2,74.6,64.4,67.1,65.0,61.1,89,73,60,29.98,29.83,6,2,20,0.00
2013-6-6,75.8,70.2,63.4,67.1,64.5,59.5,88,82,72,29.80,29.68,5,1,9,0.00
2013-6-7,80.0,70.2,61.7,68.1,63.1,58.1,89,79,56,29.77,29.61,7,1,14,0.00
2013-6-8,78.7,66.7,60.6,68.5,60.8,56.8,89,82,53,30.01,29.76,3,0,10,0.00
2013-6-9,80.2,66.6,57.7,68.2,61.2,54.5,90,83,63,30.06,29.92,7,1,17,0.00
2013-6-10,76.4,67.3,62.7,66.6,61.8,58.5,88,83,54,29.94,29.83,6,1,12,0.00
2013-6-11,81.6,69.6,59.4,68.5,62.0,56.2,90,78,52,29.95,29.88,8,1,15,0.00
2013-6-12,86.9,70.8,59.0,74.9,64.6,55.8,90,82,57,29.98,29.88,8,1,15,0.00
2013-6-13,85.3,70.9,62.1,71.6,64.0,58.8,90,80,53,29.89,29.64,8,1,17,0.00
2013-6-14,79.2,65.6,52.2,60.8,55.8,49.1,90,73,41,29.98,29.75,6,1,20,0.00
2013-6-15,79.8,65.2,50.1,64.7,56.4,46.7,89,75,51,30.09,29.98,3,0,12,0.00
2013-6-16,81.3,68.4,54.7,70.3,60.6,51.2,89,77,53,30.08,29.93,3,0,10,0.00
2013-6-17,77.5,69.7,64.7,71.0,64.7,60.8,88,84,72,29.97,29.85,3,0,12,0.00
2013-6-18,74.3,67.4,62.5,68.5,63.3,58.9,90,87,80,29.87,29.75,5,0,13,0.00
2013-6-19,80.0,67.6,58.1,68.5,61.4,54.9,90,81,52,30.03,29.85,3,0,10,0.00
2013-6-20,79.7,68.2,57.9,67.1,61.0,54.4,90,79,55,30.14,30.02,7,1,15,0.00
2013-6-21,78.3,68.2,61.5,67.7,62.3,57.9,89,82,58,30.17,30.08,5,0,9,0.00
2013-6-22,81.8,68.6,59.8,67.2,60.7,56.3,90,77,50,30.18,30.02,6,1,12,0.00
2013-6-23,80.6,68.3,56.5,70.4,61.5,53.1,89,80,60,30.15,30.03,7,0,15,0.00
2013-6-24,83.0,72.0,64.0,72.0,65.4,60.4,89,80,62,30.14,30.00,5,0,10,0.00
2013-6-25,80.7,68.8,60.3,70.0,63.6,56.7,90,84,64,30.08,29.95,6,0,10,0.00
2013-6-26,82.8,70.7,63.5,73.1,65.5,59.9,90,84,66,29.99,29.84,6,0,9,0.00
2013-6-27,82.0,72.2,65.8,75.2,67.0,62.1,90,84,71,29.90,29.69,3,0,9,0.00
2013-6-28,85.8,71.7,60.8,73.6,65.1,57.2,90,81,55,29.76,29.56,3,0,12,0.00
2013-6-29,80.0,68.5,59.2,68.2,61.2,55.3,90,79,50,29.65,29.58,3,0,12,0.00
2013-6-30,80.3,67.0,53.8,68.9,59.9,50.3,90,79,53,29.73,29.65,5,0,12,0.00
2013-7-1,80.4,68.5,61.3,68.5,62.1,57.7,89,81,56,29.87,29.71,5,1,15,0.00
2013-7-2,80.5,70.5,61.2,67.6,63.0,57.6,90,78,55,30.03,29.86,10,2,18,0.00
2013-7-3,72.7,64.8,61.1,67.9,61.2,57.8,89,88,82,30.14,29.99,5,0,10,0.00
2013-7-4,72.9,64.5,60.4,68.1,61.1,57.4,90,89,85,30.14,30.07,6,1,14,0.00
2013-7-5,77.5,69.7,65.4,68.5,64.3,61.8,89,83,67,30.14,30.07,6,1,14,0.00
2013-7-6,77.1,69.2,65.5,69.6,64.8,62.1,89,86,73,30.10,30.01,6,1,20,0.00
2013-7-7,71.0,67.3,66.2,66.6,63.8,62.8,89,88,86,30.09,30.02,2,0,12,0.00
2013-7-8,84.2,72.1,65.5,73.1,65.7,62.2,90,81,56,30.11,30.00,3,0,9,0.00
2013-7-9,85.6,72.5,66.4,74.4,67.0,62.7,89,83,64,30.09,29.98,3,0,12,0.00
2013-7-10,85.0,73.2,66.1,74.1,67.2,62.4,89,82,61,30.04,29.86,5,0,12,0.00
2013-7-11,81.2,71.5,67.0,73.0,66.8,63.3,89,85,72,29.88,29.78,2,0,6,0.00
2013-7-12,83.9,70.5,63.2,69.8,64.8,58.9,90,83,55,29.89,29.79,5,0,15,0.00
2013-7-13,78.5,68.6,61.4,68.1,62.7,57.5,89,82,64,30.01,29.88,6,0,14,0.00
2013-7-14,76.0,68.9,65.6,70.1,64.7,61.9,89,86,77,30.18,30.00,7,0,14,0.00
2013-7-15,81.5,70.9,62.2,72.8,65.0,58.9,90,82,67,30.24,30.15,3,0,7,0.00
2013-7-16,86.3,73.5,62.8,75.0,66.3,59.5,90,79,58,30.25,30.13,2,0,6,0.00
2013-7-17,87.1,71.7,64.0,74.3,66.2,60.4,90,83,56,30.22,30.07,5,0,16,0.00
2013-7-18,85.2,70.8,62.5,73.7,65.2,59.1,89,83,63,30.16,30.00,3,0,12,0.00
2013-7-19,85.4,72.5,65.5,72.4,66.2,62.2,89,82,55,30.07,29.91,5,0,12,0.00
2013-7-20,83.5,70.7,64.1,71.6,65.8,60.6,89,85,64,29.98,29.86,3,0,7,0.00
2013-7-21,83.4,71.9,67.1,73.8,66.9,63.4,90,85,64,29.94,29.84,8,0,15,0.00
2013-7-22,82.2,71.6,65.5,71.6,65.8,62.2,90,83,62,29.92,29.76,5,0,10,0.00
2013-7-23,83.5,70.3,61.1,73.2,64.0,57.8,90,81,64,29.84,29.72,5,1,10,0.00
2013-7-25,84.5,75.9,62.7,70.5,64.1,58.1,87,69,42,29.95,29.84,3,1,10,0.00
2013-7-26,80.4,67.8,58.6,67.9,61.8,55.2,89,82,62,30.01,29.93,7,1,16,0.00
2013-7-27,78.5,71.0,64.1,69.8,65.6,60.5,89,84,68,29.95,29.80,1,0,6,0.00
2013-7-28,80.8,69.6,62.2,68.4,63.0,58.3,89,80,56,29.97,29.84,7,1,12,0.00
2013-7-29,80.8,66.9,57.8,64.9,58.4,54.0,89,76,41,30.13,29.96,3,0,10,0.00
2013-7-30,83.5,66.4,52.0,68.7,59.0,48.7,89,78,53,30.18,30.06,1,0,5,0.00
2013-7-31,75.6,69.5,65.6,69.0,64.8,61.9,89,85,76,30.09,29.89,2,0,12,0.00
2013-8-1,82.5,71.5,62.8,70.7,64.9,58.9,89,80,60,29.92,29.81,7,1,15,0.00
2013-8-2,82.7,69.3,57.4,71.9,62.9,54.2,90,81,59,29.97,29.88,7,0,10,0.00
2013-8-3,81.9,70.2,61.0,69.4,63.5,57.4,89,80,58,29.97,29.91,6,1,12,0.00
2013-8-4,82.0,70.2,61.4,69.6,63.0,57.8,90,79,59,29.97,29.90,9,1,20,0.00
2013-8-5,83.2,67.9,57.5,69.2,60.8,54.2,89,79,51,30.00,29.90,5,0,13,0.00
2013-8-6,83.6,72.4,63.6,71.9,65.5,60.0,89,80,60,29.93,29.87,0,0,12,0.00
2013-8-7,71.5,69.5,67.7,66.8,65.1,63.8,88,86,84,29.93,29.90,1,0,7,0.00
2013-8-8,80.8,74.8,69.3,72.9,69.3,65.6,89,83,76,29.98,29.93,3,0,12,0.00
2013-8-9,82.5,71.9,65.6,74.3,67.3,61.9,89,86,72,30.02,29.93,3,0,7,0.00
2013-8-10,78.9,71.7,67.6,72.8,67.5,63.9,90,87,81,30.05,29.98,1,0,6,0.00
2013-8-11,81.0,72.1,67.2,72.8,67.6,63.5,89,86,75,30.08,29.98,5,0,9,0.00
2013-8-12,81.4,71.4,66.8,74.5,67.1,63.4,90,87,74,30.04,29.90,2,0,6,0.00
2013-8-13,81.4,70.6,64.8,72.9,66.0,61.1,90,86,69,29.93,29.77,5,0,12,0.00
2013-8-14,75.9,67.5,62.6,66.8,62.3,59.3,90,84,65,29.97,29.83,2,0,8,0.00
2013-8-15,73.3,64.5,55.4,62.9,58.0,51.9,89,80,68,30.04,29.95,7,1,15,0.00
2013-8-16,72.7,61.0,54.4,64.1,56.0,50.9,89,84,64,30.07,29.98,1,0,5,0.00
2013-8-17,69.0,62.9,56.0,62.8,58.2,52.3,89,85,74,30.08,30.02,2,0,5,0.00
2013-8-18,75.1,65.6,61.2,67.8,61.4,57.6,89,86,76,30.14,30.05,3,0,12,0.00
2013-8-19,74.3,67.0,62.8,68.4,63.0,59.5,90,87,81,30.11,30.00,2,0,7,0.00
2013-8-20,79.0,68.8,61.7,70.5,63.9,58.4,90,85,70,30.11,30.02,5,0,7,0.00
2013-8-21,74.7,67.7,64.9,68.9,63.8,61.2,90,87,81,30.16,30.07,2,0,3,0.00
2013-8-22,82.2,70.7,63.6,73.9,65.3,60.0,89,84,67,30.12,29.95,3,0,10,0.00
2013-8-23,83.0,70.2,62.3,71.6,64.0,58.7,90,82,56,30.02,29.90,5,0,12,0.00
2013-8-24,80.9,68.8,61.9,69.2,62.7,58.2,90,82,57,30.21,30.01,5,1,14,0.00
2013-8-25,78.2,65.0,52.0,65.9,57.5,48.5,90,78,52,30.31,30.18,2,0,12,0.00
2013-8-26,79.2,65.5,54.9,67.0,58.7,51.4,89,80,55,30.26,30.08,3,0,9,0.00
2013-8-27,80.7,66.7,57.1,69.4,60.7,53.6,90,82,61,30.11,29.97,5,0,10,0.00
2013-8-28,84.2,70.3,61.3,73.3,64.3,58.0,90,82,61,30.01,29.90,3,0,7,0.00
2013-8-29,84.7,72.8,63.6,72.5,66.5,60.3,90,81,64,29.93,29.84,7,1,15,0.00
2013-8-30,83.6,72.7,64.6,73.0,66.8,61.0,90,82,64,29.95,29.83,3,0,10,0.00
2013-8-31,85.0,73.4,66.1,72.9,67.0,62.5,89,81,59,29.90,29.78,6,0,14,0.00
2013-9-1,83.2,72.3,64.5,73.3,66.6,60.9,89,83,66,29.85,29.74,3,0,13,0.00
2013-9-2,81.3,74.5,64.7,71.1,67.5,61.0,88,79,67,29.85,29.75,3,0,12,0.00
2013-9-3,81.4,69.0,60.9,70.3,62.7,57.6,90,81,58,29.94,29.79,7,1,15,0.00
2013-9-4,81.1,67.0,59.0,71.0,61.7,55.4,90,84,61,30.05,29.94,3,0,7,0.00
2013-9-5,80.5,64.4,59.6,69.0,60.3,56.2,90,87,62,30.09,30.01,2,0,6,0.00
2013-9-6,80.4,68.2,60.2,68.9,61.8,56.9,90,81,59,30.11,29.99,5,0,7,0.00
2013-9-7,80.8,66.9,59.0,69.4,60.9,55.4,90,82,59,30.07,29.93,5,0,10,0.00
2013-9-8,80.0,66.9,57.6,68.7,60.8,54.1,90,82,59,29.97,29.89,6,0,10,0.00
2013-9-9,83.5,69.0,59.8,70.1,62.4,56.2,90,81,56,30.08,29.97,3,0,14,0.00
2013-9-10,84.7,69.7,60.5,69.2,62.9,57.0,90,80,57,30.18,30.07,3,0,12,0.00
2013-9-11,82.5,68.5,61.3,72.0,63.1,57.7,89,84,63,30.18,30.03,3,0,10,0.00
2013-9-12,76.9,67.8,63.3,69.1,63.6,59.7,89,87,75,30.05,29.84,6,0,13,0.00
2013-9-13,75.4,65.1,52.1,64.2,57.3,48.3,90,78,51,29.86,29.77,9,1,18,0.00
2013-9-14,74.4,57.3,44.8,60.1,50.6,41.8,89,80,50,30.04,29.86,5,0,9,0.00
2013-9-15,75.6,66.9,49.9,63.4,58.1,46.5,90,75,55,30.15,30.06,6,1,12,0.00
2013-9-16,79.2,63.3,55.1,65.4,57.1,51.7,90,82,46,30.12,30.02,7,0,13,0.00
2013-9-17,70.5,63.6,58.6,60.9,57.5,55.2,89,81,68,30.17,30.09,8,1,14,0.00
2013-9-18,67.4,61.9,57.2,61.4,56.3,53.4,88,82,68,30.19,30.08,2,0,7,0.00
2013-9-19,78.9,65.8,57.2,68.5,60.0,53.7,89,82,61,30.13,30.00,3,0,10,0.00
2013-9-20,80.0,66.1,58.1,68.6,60.5,54.6,90,83,60,30.03,29.85,5,0,9,0.00
2013-9-21,67.0,62.2,56.5,62.7,58.6,53.3,90,88,85,29.88,29.64,6,0,12,0.00
2013-9-22,73.3,58.6,49.0,61.6,52.9,45.9,90,82,50,29.86,29.71,3,0,7,0.00
2013-9-23,73.5,60.0,52.3,62.6,54.2,49.1,90,82,56,29.99,29.86,3,0,12,0.00
2013-9-24,74.5,60.9,50.9,63.6,55.5,47.5,89,83,68,30.01,29.86,6,0,13,0.00
2013-9-25,64.0,61.3,59.2,59.7,57.4,55.3,89,87,85,29.86,29.76,0,0,6,0.00
2013-9-26,73.6,62.5,55.0,65.6,57.6,51.5,89,84,66,29.98,29.81,5,0,10,0.00
2013-9-27,74.1,59.8,53.7,63.6,54.7,50.5,90,84,53,30.10,29.98,2,0,10,0.00
2013-9-28,72.1,59.2,48.5,61.5,53.2,45.3,90,81,56,30.18,30.05,2,0,12,0.00
2013-9-29,70.4,59.1,51.5,60.1,53.0,48.1,89,81,55,30.10,29.96,1,0,6,0.00
2013-9-30,72.6,59.3,50.5,61.1,53.3,47.1,90,82,55,30.04,29.93,3,0,10,0.00
2013-10-1,74.7,60.3,51.0,64.1,54.6,47.6,92,83,55,30.12,30.00,5,0,7,0.00
2013-10-2,77.3,61.9,54.7,66.3,56.8,51.4,91,84,56,30.14,30.01,3,0,6,0.00
2013-10-3,78.2,62.3,56.6,63.4,56.6,53.4,90,83,53,30.10,30.01,2,0,6,0.00
2013-10-6,68.3,65.3,63.9,62.7,60.9,60.1,88,86,80,29.84,29.81,2,0,10,0.00
2013-10-7,69.6,60.5,48.0,60.3,54.7,44.6,89,82,60,29.96,29.74,6,1,13,0.00
2013-10-8,73.0,56.0,44.5,59.1,49.3,41.2,89,79,55,30.11,29.95,5,0,12,0.00
2013-10-9,74.2,55.8,45.2,60.9,50.1,42.2,90,82,53,30.15,30.03,3,0,9,0.00
2013-10-10,71.1,56.9,48.2,57.8,50.3,44.8,90,80,50,30.09,29.97,8,1,15,0.00
2013-10-11,73.7,55.2,45.0,59.2,49.1,41.7,90,81,47,30.04,29.92,5,1,12,0.00
2013-10-12,74.1,57.0,46.2,60.5,50.3,43.1,90,80,54,30.05,29.98,6,1,14,0.00
2013-10-13,70.8,64.7,54.7,62.0,58.1,51.5,90,80,65,30.14,30.08,5,1,10,0.00
2013-10-14,70.3,61.4,56.4,62.1,56.2,52.9,89,84,66,30.16,30.05,2,0,5,0.00
2013-10-15,71.1,60.4,51.7,59.4,54.3,48.6,90,81,64,30.10,29.95,3,0,10,0.00
2013-10-16,67.1,57.7,50.5,59.3,52.9,47.1,92,84,70,30.01,29.90,2,0,6,0.00
2013-10-17,64.8,60.1,53.7,61.0,56.5,50.3,89,88,86,29.92,29.79,5,0,10,0.00
2013-10-18,68.4,55.9,47.9,56.7,50.1,44.8,90,82,55,29.96,29.85,5,0,12,0.00
2013-10-19,60.9,52.6,45.7,52.0,47.6,42.3,91,84,57,29.92,29.83,3,0,9,0.00
2013-10-20,63.8,46.9,33.9,49.9,40.3,31.0,91,80,41,30.06,29.92,3,1,10,0.00
2013-10-21,66.3,45.8,34.6,50.9,40.6,31.4,89,83,55,30.13,29.97,5,0,12,0.00
2013-10-22,67.2,54.4,47.0,52.4,47.3,43.0,91,79,49,30.01,29.77,6,0,12,0.00
2013-10-23,51.9,44.2,36.5,42.7,35.3,28.4,88,72,52,30.02,29.73,14,4,23,0.00
2013-10-24,54.1,40.2,28.1,39.4,32.5,25.0,88,75,50,30.17,30.02,6,1,14,0.00
2013-10-25,49.8,38.6,27.0,33.5,26.1,21.7,84,63,34,30.34,30.17,8,2,18,0.00
2013-10-26,57.9,47.9,36.5,42.0,34.3,29.6,83,62,37,30.30,30.12,3,1,10,0.00
2013-10-27,61.8,51.4,39.5,51.8,44.5,35.1,87,78,59,30.12,30.03,5,0,9,0.00
2013-10-28,62.6,52.9,46.2,54.4,48.2,42.6,89,84,66,30.22,30.08,3,0,7,0.00
2013-10-29,66.4,53.2,44.8,55.0,47.6,41.5,90,82,55,30.30,30.19,3,0,6,0.00
2013-10-30,72.2,57.4,48.1,60.4,51.1,44.7,92,81,56,30.25,30.10,3,0,9,0.00
2013-10-31,64.8,59.1,51.7,58.3,53.5,48.3,89,82,70,30.12,29.75,9,3,21,0.00
2013-11-1,71.5,59.2,46.1,58.3,50.8,37.0,88,76,33,29.74,29.59,10,1,24,0.00
2013-11-2,57.9,45.5,37.4,46.3,39.4,33.9,89,80,53,30.01,29.72,8,1,20,0.00
2013-11-3,58.8,43.1,33.5,40.9,35.1,30.3,89,76,35,30.30,30.00,6,0,12,0.00
2013-11-4,56.6,41.3,29.5,40.5,32.3,26.4,89,73,44,30.44,30.31,7,1,13,0.00
2013-11-5,64.9,44.6,32.5,44.4,35.0,29.3,88,72,36,30.47,30.31,5,0,10,0.00
2013-11-6,64.5,52.5,39.8,53.1,46.6,35.7,89,81,65,30.37,30.08,5,0,16,0.00
2013-11-7,60.3,49.4,34.1,52.4,41.7,29.8,89,76,46,30.13,29.96,10,2,20,0.00
2013-11-8,54.9,39.9,29.1,30.4,25.2,17.1,87,62,23,30.29,30.14,8,1,13,0.00
2013-11-9,52.9,45.3,37.4,39.5,36.1,31.6,85,71,44,30.28,30.23,1,0,5,0.00
2013-11-10,64.1,45.0,30.5,38.6,32.9,27.1,88,68,28,30.27,30.17,7,1,21,0.00
2013-11-11,63.0,41.7,26.3,39.9,31.9,22.9,88,71,31,30.30,30.13,3,0,9,0.00
2013-11-12,52.8,36.0,21.0,39.0,28.2,14.9,88,74,49,30.42,30.10,13,3,28,0.00
2013-11-13,46.5,27.7,13.7,21.6,15.4,9.0,87,64,25,30.56,30.42,3,0,13,0.00
2013-11-14,56.2,31.8,16.1,26.4,18.5,12.9,87,64,21,30.50,30.30,3,0,6,0.00